Flag for U.S.A. Weather past 2 weeks in Oceanside, California, U.S.A.

Now
74 °F

Sunny.


Feels Like: 76 °F
Forecast: 61 / 76 °F
Wind: 6 mph from West

Location: Oceanside Weather Reporting Station

Current Time: Aug 22, 2014 at 6:56:07 PM

Latest Report: Aug 22, 2014 at 5:52 PM


Visibility: 10 mi

Pressure: 29.92 "Hg

Humidity: 71%

Dew point: 64 °F

Location of OceansideLocation

Historic Weather in Oceanside — Graph

°F

Oceanside temperature yesterday

Maximum temperature yesterday: 79 °F (at 1:52 PM)
Minimum temperature yesterday: 65 °F (at 4:52 AM)
Average temperature yesterday: 72 °F

Past Weeks' High & Low Weather Summary

 TemperatureHumidityPressure
High82 °F (Aug 16, 12:52 PM)91% (Aug 11, 1:52 AM)29.99 "Hg (Aug 11, 1:52 AM)
Low61 °F (Aug 15, 5:52 AM)51% (Aug 15, 1:52 PM)29.80 "Hg (Aug 18, 4:52 PM)
Average72 °F73%29.92 "Hg
* Reported Aug 7 4:52 PM — Aug 22 4:52 PM, Oceanside, Weather by CustomWeather, © 2014

Note: Actual official high and low records may vary slightly from our data, if they occured in-between our weather recording intervals... More about our weather records

Advertising

Oceanside weather history for previous 24 hours

 ConditionsComfort  
Time TempWeatherWind HumidityBarometerVisibility
4:52 PM
Aug 22
75 °FSunny.8 mph69%29.92 "Hg10 mi
3:52 PM78 °FSunny.10 mph62%29.92 "Hg10 mi
2:52 PM78 °FSunny.10 mph62%29.93 "Hg10 mi
1:52 PM78 °FSunny.10 mph62%29.94 "Hg10 mi
12:52 PM78 °FSunny.8 mph62%29.95 "Hg10 mi
11:52 AM78 °FSunny.9 mph62%29.96 "Hg10 mi
10:52 AM78 °FSunny.7 mph62%29.96 "Hg10 mi
9:52 AM75 °FScattered clouds.7 mph69%29.97 "Hg10 mi
8:52 AM72 °FOvercast.No wind76%29.96 "Hg9 mi
7:52 AM69 °FPartly sunny.No wind84%29.95 "Hg7 mi
6:52 AM68 °FLow clouds.No wind84%29.94 "Hg7 mi
5:52 AM67 °FOvercast.No wind87%29.93 "Hg9 mi
4:52 AM66 °FOvercast.No wind87%29.92 "Hg9 mi
3:52 AM66 °FPassing clouds.No wind87%29.92 "Hg9 mi
2:52 AM67 °FOvercast.No wind87%29.93 "Hg9 mi
1:52 AM67 °FOvercast.No wind85%29.94 "Hg9 mi
12:52 AM67 °FOvercast.No wind85%29.95 "Hg9 mi
11:52 PM
Aug 21
68 °FClear.No wind84%29.95 "Hg9 mi
10:52 PM69 °FClear.No wind84%29.95 "Hg10 mi
9:52 PM70 °FClear.3 mph81%29.94 "Hg10 mi
8:52 PM71 °FPassing clouds.No wind78%29.93 "Hg10 mi
7:52 PM71 °FScattered clouds.5 mph76%29.92 "Hg10 mi
6:52 PM73 °FSunny.5 mph71%29.91 "Hg10 mi
Weather by CustomWeather, © 2014

See weather overviewHow to use our weather pages